EZY96MU EGKK-LOWI

Flight info

Callsign EZY96MU
Flight time 1h 49m
Altitude 31000
Route MIMFO Y312 DVR UL9 KONAN UL607 MATUG DCT AMASI DCT BOMBI T104 WLD M867 BAVAX Z106 MANAL M736 TULSI TULSI3A
Aircraft A320/M-SDE3FGHIRWY/LB1

Departure

Time 2026-04-18 07:43
Airport London Gatwick Airport (EGKK)

Arrival

Time 2026-04-18 09:32
Airport Innsbruck Airport (LOWI)
Time Latitude Longitude Altitude Speed Heading
2026-04-18 07:17 51.15854 -0.17435 205 ft 0 kts 347°
2026-04-18 07:34 51.15839 -0.17430 215 ft 3 kts 347°
2026-04-18 07:35 51.15820 -0.17423 210 ft 3 kts 348°
2026-04-18 07:35 51.15801 -0.17415 205 ft 3 kts 333°
2026-04-18 07:35 51.15786 -0.17398 214 ft 3 kts 298°
2026-04-18 07:35 51.15781 -0.17372 208 ft 2 kts 261°
2026-04-18 07:36 51.15783 -0.17354 213 ft 3 kts 258°
2026-04-18 07:36 51.15786 -0.17336 211 ft 0 kts 258°
2026-04-18 07:39 51.15784 -0.17349 211 ft 7 kts 258°
2026-04-18 07:39 51.15749 -0.17493 213 ft 16 kts 210°
2026-04-18 07:39 51.15642 -0.17475 205 ft 16 kts 168°
2026-04-18 07:39 51.15532 -0.17437 205 ft 16 kts 168°
2026-04-18 07:40 51.15414 -0.17396 205 ft 18 kts 168°
2026-04-18 07:40 51.15284 -0.17350 213 ft 20 kts 166°
2026-04-18 07:40 51.15251 -0.17209 205 ft 14 kts 79°
2026-04-18 07:40 51.15274 -0.17037 214 ft 22 kts 77°
2026-04-18 07:41 51.15287 -0.16848 211 ft 13 kts 117°
2026-04-18 07:41 51.15217 -0.16806 215 ft 10 kts 170°
2026-04-18 07:41 51.15156 -0.16789 206 ft 8 kts 170°
2026-04-18 07:41 51.15132 -0.16801 206 ft 1 kts 237°
2026-04-18 07:42 51.15121 -0.16827 209 ft 1 kts 237°
2026-04-18 07:42 51.15100 -0.16938 211 ft 36 kts 257°
2026-04-18 07:42 51.14992 -0.17730 211 ft 105 kts 258°
2026-04-18 07:42 51.14797 -0.19169 226 ft 156 kts 258°
2026-04-18 07:43 51.14563 -0.20908 763 ft 163 kts 258°
2026-04-18 07:43 51.14323 -0.22725 1361 ft 176 kts 260°
2026-04-18 07:43 51.14065 -0.24747 1734 ft 196 kts 261°
2026-04-18 07:43 51.13786 -0.26970 2218 ft 212 kts 264°
2026-04-18 07:44 51.13925 -0.29290 3040 ft 214 kts 292°
2026-04-18 07:44 51.14791 -0.31234 3755 ft 222 kts 319°
2026-04-18 07:44 51.16202 -0.32219 3956 ft 228 kts 351°
2026-04-18 07:44 51.17774 -0.31823 4005 ft 236 kts 24°
2026-04-18 07:45 51.18999 -0.30079 4011 ft 242 kts 58°
2026-04-18 07:45 51.19480 -0.27489 4384 ft 248 kts 81°
2026-04-18 07:45 51.19775 -0.24761 5214 ft 252 kts 79°
2026-04-18 07:45 51.20104 -0.21992 5998 ft 257 kts 79°
2026-04-18 07:46 51.20457 -0.19142 6602 ft 272 kts 79°
2026-04-18 07:46 51.20860 -0.16065 7013 ft 293 kts 79°
2026-04-18 07:46 51.21292 -0.12828 7734 ft 300 kts 79°
2026-04-18 07:46 51.21731 -0.09591 8550 ft 305 kts 78°
2026-04-18 07:47 51.22180 -0.06266 9392 ft 309 kts 78°
2026-04-18 07:47 51.22629 -0.02893 10216 ft 313 kts 79°
2026-04-18 07:47 51.23082 0.00578 10539 ft 330 kts 79°
2026-04-18 07:47 51.23559 0.04286 10733 ft 354 kts 80°
2026-04-18 07:48 51.23736 0.08322 10882 ft 374 kts 95°
2026-04-18 07:48 51.23564 0.12542 11305 ft 385 kts 96°
2026-04-18 07:48 51.23371 0.16831 11936 ft 390 kts 96°
2026-04-18 07:48 51.23167 0.21172 12576 ft 394 kts 97°
2026-04-18 07:49 51.22962 0.25505 13211 ft 399 kts 97°
2026-04-18 07:49 51.22751 0.29940 13817 ft 403 kts 97°
2026-04-18 07:49 51.22538 0.34425 14391 ft 408 kts 97°
2026-04-18 07:49 51.22323 0.38970 14974 ft 411 kts 97°
2026-04-18 07:50 51.22108 0.43541 15542 ft 415 kts 97°
2026-04-18 07:50 51.21890 0.48154 16101 ft 419 kts 97°
2026-04-18 07:50 51.21668 0.52804 16673 ft 422 kts 97°
2026-04-18 07:50 51.21445 0.57492 17236 ft 426 kts 97°
2026-04-18 07:51 51.21214 0.62237 17813 ft 430 kts 97°
2026-04-18 07:51 51.20980 0.67008 18369 ft 434 kts 97°
2026-04-18 07:51 51.20742 0.71809 18869 ft 437 kts 97°
2026-04-18 07:51 51.20501 0.76600 19355 ft 441 kts 97°
2026-04-18 07:52 51.20251 0.81494 19846 ft 444 kts 97°
2026-04-18 07:52 51.19999 0.86419 20343 ft 447 kts 97°
2026-04-18 07:52 51.19743 0.91382 20844 ft 451 kts 97°
2026-04-18 07:52 51.19486 0.96382 21343 ft 454 kts 97°
2026-04-18 07:53 51.19226 1.01412 21779 ft 457 kts 98°
2026-04-18 07:53 51.18961 1.06485 22206 ft 461 kts 98°
2026-04-18 07:53 51.18690 1.11593 22623 ft 464 kts 98°
2026-04-18 07:53 51.18412 1.16729 23020 ft 467 kts 98°
2026-04-18 07:54 51.18131 1.21903 23412 ft 470 kts 98°
2026-04-18 07:54 51.17847 1.27116 23789 ft 474 kts 98°
2026-04-18 07:54 51.17560 1.32364 24110 ft 476 kts 98°
2026-04-18 07:54 51.17269 1.37647 24423 ft 479 kts 98°
2026-04-18 07:55 51.16975 1.42957 24705 ft 482 kts 99°
2026-04-18 07:55 51.16676 1.48307 25015 ft 485 kts 99°
2026-04-18 07:55 51.16371 1.53676 25325 ft 488 kts 99°
2026-04-18 07:55 51.16063 1.59018 25632 ft 491 kts 99°
2026-04-18 07:56 51.15744 1.64452 25936 ft 493 kts 99°
2026-04-18 07:56 51.15423 1.69904 26233 ft 496 kts 100°
2026-04-18 07:56 51.15101 1.75385 26517 ft 499 kts 100°
2026-04-18 07:56 51.14777 1.80916 26800 ft 501 kts 100°
2026-04-18 07:57 51.14453 1.86473 27070 ft 504 kts 100°
2026-04-18 07:57 51.14125 1.92033 27311 ft 506 kts 100°
2026-04-18 07:57 51.13789 1.97614 27638 ft 507 kts 100°
2026-04-18 07:57 51.13445 2.03217 27920 ft 509 kts 100°
2026-04-18 07:58 51.12744 2.14409 28464 ft 513 kts 101°
2026-04-18 07:58 51.12386 2.20056 28836 ft 512 kts 101°
2026-04-18 07:58 51.12031 2.25699 29209 ft 512 kts 101°
2026-04-18 07:59 51.11679 2.31337 29576 ft 512 kts 101°
2026-04-18 07:59 51.11325 2.36983 29905 ft 512 kts 101°
2026-04-18 07:59 51.10967 2.42618 30287 ft 511 kts 100°
2026-04-18 07:59 51.10605 2.48237 30645 ft 510 kts 101°
2026-04-18 08:00 51.10236 2.53841 30980 ft 509 kts 101°
2026-04-18 08:00 51.09860 2.59458 31189 ft 509 kts 101°
2026-04-18 08:00 51.09403 2.64961 31227 ft 507 kts 106°
2026-04-18 08:01 51.07575 2.75703 31230 ft 502 kts 112°
2026-04-18 08:01 51.05632 2.86371 31207 ft 502 kts 111°
2026-04-18 08:02 51.03698 2.97009 31222 ft 501 kts 111°
2026-04-18 08:02 51.01748 3.07627 31223 ft 500 kts 112°
2026-04-18 08:03 50.99789 3.18212 31222 ft 500 kts 112°
2026-04-18 08:03 50.97821 3.28801 31222 ft 500 kts 112°
2026-04-18 08:04 50.95865 3.39315 31198 ft 499 kts 111°
2026-04-18 08:04 50.93890 3.49861 31207 ft 499 kts 111°
2026-04-18 08:05 50.91899 3.60406 31209 ft 498 kts 111°
2026-04-18 08:05 50.89891 3.70912 31211 ft 498 kts 112°
2026-04-18 08:06 50.87874 3.81322 31199 ft 497 kts 111°
2026-04-18 08:06 50.85838 3.91788 31211 ft 497 kts 111°
2026-04-18 08:07 50.83807 4.02231 31214 ft 496 kts 111°
2026-04-18 08:07 50.81761 4.12652 31213 ft 496 kts 112°
2026-04-18 08:08 50.79700 4.23060 31178 ft 495 kts 111°
2026-04-18 08:08 50.77637 4.33443 31187 ft 495 kts 111°
2026-04-18 08:09 50.75573 4.43832 31198 ft 495 kts 111°
2026-04-18 08:09 50.73509 4.54145 31205 ft 495 kts 112°
2026-04-18 08:10 50.71431 4.64508 31204 ft 495 kts 111°
2026-04-18 08:10 50.69416 4.74902 31205 ft 495 kts 110°
2026-04-18 08:11 50.67422 4.85285 31220 ft 494 kts 111°
2026-04-18 08:11 50.65400 4.95624 31217 ft 493 kts 111°
2026-04-18 08:12 50.63287 5.05900 31216 ft 492 kts 112°
2026-04-18 08:12 50.61139 5.16140 31193 ft 492 kts 112°
2026-04-18 08:13 50.59020 5.26305 31207 ft 491 kts 112°
2026-04-18 08:13 50.56896 5.36520 31209 ft 491 kts 112°
2026-04-18 08:14 50.54768 5.46713 31209 ft 491 kts 112°
2026-04-18 08:14 50.52626 5.56900 31208 ft 490 kts 112°
2026-04-18 08:15 50.50850 5.67267 31178 ft 493 kts 104°
2026-04-18 08:15 50.49504 5.77828 31195 ft 493 kts 104°
2026-04-18 08:16 50.48134 5.88362 31200 ft 492 kts 104°
2026-04-18 08:16 50.46746 5.98891 31193 ft 492 kts 104°
2026-04-18 08:17 50.45364 6.09334 31191 ft 491 kts 104°
2026-04-18 08:17 50.43969 6.19827 31201 ft 490 kts 104°
2026-04-18 08:18 50.42567 6.30302 31196 ft 489 kts 104°
2026-04-18 08:18 50.41159 6.40741 31196 ft 489 kts 104°
2026-04-18 08:19 50.39738 6.51099 31187 ft 489 kts 104°
2026-04-18 08:19 50.38291 6.61496 31190 ft 488 kts 104°
2026-04-18 08:20 50.36841 6.71869 31195 ft 487 kts 104°
2026-04-18 08:20 50.35385 6.82231 31198 ft 487 kts 104°
2026-04-18 08:21 50.33912 6.92588 31214 ft 487 kts 104°
2026-04-18 08:21 50.32437 7.02914 31210 ft 487 kts 104°
2026-04-18 08:22 50.30957 7.13253 31209 ft 487 kts 104°
2026-04-18 08:22 50.29470 7.23592 31209 ft 487 kts 104°
2026-04-18 08:23 50.28222 7.32180 31208 ft 487 kts 104°
2026-04-18 08:23 50.26709 7.42491 31203 ft 486 kts 104°
2026-04-18 08:24 50.25192 7.52756 31199 ft 486 kts 104°
2026-04-18 08:24 50.23649 7.63109 31196 ft 486 kts 104°
2026-04-18 08:25 50.22139 7.73285 31194 ft 485 kts 104°
2026-04-18 08:25 50.20610 7.83556 31181 ft 485 kts 104°
2026-04-18 08:26 50.19068 7.93807 31188 ft 485 kts 104°
2026-04-18 08:26 50.17513 8.04056 31187 ft 485 kts 104°
2026-04-18 08:27 50.15949 8.14295 31182 ft 485 kts 104°
2026-04-18 08:27 50.14372 8.24542 31186 ft 485 kts 105°
2026-04-18 08:28 50.12798 8.34697 31180 ft 485 kts 104°
2026-04-18 08:28 50.11209 8.44907 31167 ft 485 kts 104°
2026-04-18 08:29 50.09614 8.55103 31170 ft 485 kts 105°
2026-04-18 08:29 50.08004 8.65299 31176 ft 485 kts 105°
2026-04-18 08:30 50.06079 8.75330 31178 ft 482 kts 116°
2026-04-18 08:30 50.02540 8.84083 31179 ft 477 kts 133°
2026-04-18 08:31 49.97806 8.91142 31180 ft 474 kts 140°
2026-04-18 08:31 49.92925 8.98027 31175 ft 474 kts 140°
2026-04-18 08:32 49.88041 9.04906 31168 ft 474 kts 141°
2026-04-18 08:32 49.83144 9.11769 31154 ft 474 kts 140°
2026-04-18 08:33 49.78241 9.18621 31159 ft 475 kts 140°
2026-04-18 08:33 49.73335 9.25468 31164 ft 474 kts 140°
2026-04-18 08:34 49.68464 9.32252 31166 ft 474 kts 140°
2026-04-18 08:34 49.63523 9.39096 31167 ft 474 kts 141°
2026-04-18 08:35 49.58985 9.46425 31168 ft 477 kts 133°
2026-04-18 08:35 49.54616 9.54119 31166 ft 477 kts 133°
2026-04-18 08:36 49.50237 9.61795 31178 ft 477 kts 133°
2026-04-18 08:36 49.45854 9.69457 31181 ft 477 kts 133°
2026-04-18 08:37 49.41466 9.77089 31180 ft 477 kts 134°
2026-04-18 08:37 49.37092 9.84644 31177 ft 476 kts 134°
2026-04-18 08:38 49.32693 9.92249 31180 ft 476 kts 134°
2026-04-18 08:38 49.28294 9.99835 31182 ft 476 kts 134°
2026-04-18 08:39 49.23886 10.07403 31175 ft 476 kts 134°
2026-04-18 08:39 49.19482 10.14930 31181 ft 476 kts 134°
2026-04-18 08:40 49.15060 10.22475 31183 ft 476 kts 134°
2026-04-18 08:40 49.10591 10.29929 31198 ft 475 kts 135°
2026-04-18 08:41 49.06019 10.37213 31204 ft 475 kts 136°
2026-04-18 08:41 49.01464 10.44411 31208 ft 475 kts 136°
2026-04-18 08:42 48.96902 10.51682 31213 ft 475 kts 136°
2026-04-18 08:42 48.92344 10.58958 31215 ft 475 kts 136°
2026-04-18 08:43 48.87783 10.66211 31215 ft 475 kts 136°
2026-04-18 08:43 48.83213 10.73449 31211 ft 475 kts 136°
2026-04-18 08:44 48.78638 10.80666 31195 ft 475 kts 136°
2026-04-18 08:44 48.74049 10.87873 31196 ft 474 kts 136°
2026-04-18 08:45 48.69450 10.95049 31206 ft 474 kts 136°
2026-04-18 08:45 48.64843 11.02220 31204 ft 475 kts 136°
2026-04-18 08:46 48.60260 11.09346 31202 ft 475 kts 136°
2026-04-18 08:46 48.55694 11.16578 30997 ft 477 kts 134°
2026-04-18 08:46 48.53497 11.20334 30757 ft 477 kts 133°
2026-04-18 08:47 48.51345 11.24143 30496 ft 478 kts 131°
2026-04-18 08:47 48.49205 11.27981 30235 ft 478 kts 131°
2026-04-18 08:47 48.47058 11.31812 29961 ft 479 kts 131°
2026-04-18 08:47 48.44887 11.35633 29680 ft 480 kts 132°
2026-04-18 08:48 48.42695 11.39437 29405 ft 481 kts 132°
2026-04-18 08:48 48.40489 11.43231 29130 ft 481 kts 132°
2026-04-18 08:48 48.38274 11.47019 28858 ft 482 kts 132°
2026-04-18 08:48 48.36059 11.50800 28588 ft 483 kts 132°
2026-04-18 08:49 48.33836 11.54595 28315 ft 483 kts 132°
2026-04-18 08:49 48.31614 11.58396 28055 ft 484 kts 132°
2026-04-18 08:49 48.29305 11.62069 27789 ft 483 kts 139°
2026-04-18 08:49 48.26674 11.65197 27537 ft 482 kts 148°
2026-04-18 08:50 48.23758 11.67671 27278 ft 482 kts 156°
2026-04-18 08:50 48.20675 11.69454 26683 ft 478 kts 165°
2026-04-18 08:50 48.17488 11.70644 25443 ft 467 kts 169°
2026-04-18 08:50 48.14337 11.71707 24421 ft 456 kts 169°
2026-04-18 08:51 48.11292 11.72732 23669 ft 443 kts 169°
2026-04-18 08:51 48.08271 11.73753 22865 ft 442 kts 169°
2026-04-18 08:51 48.05282 11.74765 22151 ft 440 kts 169°
2026-04-18 08:51 48.02310 11.75775 21463 ft 437 kts 168°
2026-04-18 08:52 47.99355 11.76782 20782 ft 434 kts 168°
2026-04-18 08:52 47.96451 11.77773 20127 ft 432 kts 168°
2026-04-18 08:52 47.93534 11.78771 19473 ft 429 kts 168°
2026-04-18 08:52 47.90612 11.79636 18836 ft 426 kts 174°
2026-04-18 08:53 47.87675 11.79874 18165 ft 421 kts 183°
2026-04-18 08:53 47.84761 11.79692 17586 ft 416 kts 184°
2026-04-18 08:53 47.81879 11.79517 17017 ft 411 kts 184°
2026-04-18 08:53 47.79037 11.79353 16476 ft 406 kts 184°
2026-04-18 08:54 47.76230 11.79200 15941 ft 402 kts 184°
2026-04-18 08:54 47.73449 11.79056 15421 ft 398 kts 183°
2026-04-18 08:54 47.70694 11.79250 14894 ft 396 kts 173°
2026-04-18 08:54 47.68007 11.80131 14348 ft 395 kts 163°
2026-04-18 08:55 47.65433 11.81533 13740 ft 393 kts 160°
2026-04-18 08:55 47.62885 11.82967 13126 ft 390 kts 160°
2026-04-18 08:55 47.60348 11.84388 12528 ft 388 kts 160°
2026-04-18 08:55 47.57833 11.85795 11882 ft 386 kts 160°
2026-04-18 08:56 47.55366 11.87171 11299 ft 382 kts 160°
2026-04-18 08:56 47.52967 11.88506 11124 ft 353 kts 160°
2026-04-18 08:56 47.50761 11.89731 10990 ft 325 kts 160°
2026-04-18 08:56 47.48716 11.90867 10780 ft 305 kts 160°
2026-04-18 08:57 47.44758 11.91897 10061 ft 276 kts 189°
2026-04-18 08:57 47.42943 11.91172 9874 ft 267 kts 205°
2026-04-18 08:57 47.41376 11.89761 9742 ft 263 kts 221°
2026-04-18 08:58 47.40146 11.87779 9609 ft 262 kts 236°
2026-04-18 08:58 47.39123 11.85590 9498 ft 262 kts 237°
2026-04-18 08:58 47.38087 11.83379 9503 ft 262 kts 238°
2026-04-18 08:58 47.37244 11.81019 9295 ft 260 kts 249°
2026-04-18 08:59 47.36561 11.78553 9024 ft 257 kts 249°
2026-04-18 08:59 47.35892 11.76121 8552 ft 255 kts 249°
2026-04-18 08:59 47.35227 11.73706 8076 ft 252 kts 249°
2026-04-18 08:59 47.34574 11.71343 7689 ft 247 kts 249°
2026-04-18 09:00 47.33931 11.69021 7304 ft 242 kts 249°
2026-04-18 09:00 47.33300 11.66754 6942 ft 236 kts 248°
2026-04-18 09:00 47.32684 11.64537 6581 ft 231 kts 248°
2026-04-18 09:00 47.32081 11.62366 6217 ft 226 kts 248°
2026-04-18 09:01 47.31489 11.60240 5872 ft 222 kts 248°
2026-04-18 09:01 47.30908 11.58158 5520 ft 218 kts 248°
2026-04-18 09:01 47.30338 11.56118 5173 ft 213 kts 248°
2026-04-18 09:01 47.29783 11.54142 4870 ft 202 kts 248°
2026-04-18 09:02 47.29257 11.52273 4565 ft 194 kts 248°
2026-04-18 09:02 47.28745 11.50453 4276 ft 190 kts 248°
2026-04-18 09:02 47.28257 11.48715 4022 ft 175 kts 248°
2026-04-18 09:02 47.27813 11.47128 3751 ft 161 kts 248°
2026-04-18 09:03 47.27401 11.45656 3497 ft 151 kts 248°
2026-04-18 09:03 47.27071 11.44216 3245 ft 147 kts 261°
2026-04-18 09:03 47.26915 11.42737 3026 ft 145 kts 261°
2026-04-18 09:03 47.26756 11.41276 2802 ft 144 kts 261°
2026-04-18 09:04 47.26595 11.39844 2557 ft 143 kts 261°
2026-04-18 09:04 47.26431 11.38397 2358 ft 143 kts 261°
2026-04-18 09:04 47.26291 11.36951 2154 ft 143 kts 261°
2026-04-18 09:04 47.26135 11.35505 1919 ft 142 kts 262°
2026-04-18 09:05 47.26018 11.34154 2103 ft 136 kts 262°
2026-04-18 09:05 47.25868 11.32701 2785 ft 152 kts 259°
2026-04-18 09:05 47.25651 11.31066 3339 ft 170 kts 258°
2026-04-18 09:05 47.25403 11.29279 3615 ft 190 kts 258°
2026-04-18 09:06 47.25121 11.27270 3881 ft 211 kts 258°
2026-04-18 09:06 47.24810 11.25088 4383 ft 223 kts 258°
2026-04-18 09:06 47.24600 11.22806 5170 ft 227 kts 276°
2026-04-18 09:06 47.25070 11.20598 6016 ft 228 kts 302°
2026-04-18 09:07 47.25957 11.18657 6864 ft 229 kts 304°
2026-04-18 09:07 47.26847 11.16726 7657 ft 232 kts 303°
2026-04-18 09:07 47.27754 11.14749 8459 ft 234 kts 303°
2026-04-18 09:07 47.28667 11.12757 9277 ft 236 kts 303°
2026-04-18 09:08 47.29594 11.10736 10109 ft 239 kts 303°
2026-04-18 09:08 47.30458 11.08637 10878 ft 241 kts 292°
2026-04-18 09:08 47.30923 11.06256 11425 ft 243 kts 282°
2026-04-18 09:08 47.31261 11.03801 11654 ft 244 kts 282°
2026-04-18 09:09 47.31595 11.01354 11720 ft 243 kts 282°
2026-04-18 09:09 47.31930 10.98916 11726 ft 242 kts 281°
2026-04-18 09:09 47.31897 10.96482 11724 ft 237 kts 250°
2026-04-18 09:09 47.30925 10.94712 11710 ft 222 kts 209°
2026-04-18 09:10 47.29489 10.94328 11731 ft 207 kts 172°
2026-04-18 09:10 47.28224 10.95257 11721 ft 206 kts 134°
2026-04-18 09:10 47.27576 10.97099 11724 ft 205 kts 96°
2026-04-18 09:10 47.27793 10.99132 11726 ft 202 kts 60°
2026-04-18 09:11 47.28456 11.00965 11722 ft 203 kts 63°
2026-04-18 09:11 47.29023 11.02881 11724 ft 204 kts 65°
2026-04-18 09:11 47.29580 11.04882 11736 ft 228 kts 66°
2026-04-18 09:11 47.30186 11.07198 11688 ft 252 kts 75°
2026-04-18 09:12 47.30197 11.09787 11715 ft 258 kts 105°
2026-04-18 09:12 47.29532 11.12246 11722 ft 260 kts 114°
2026-04-18 09:12 47.28806 11.14689 11723 ft 260 kts 114°
2026-04-18 09:12 47.28086 11.17136 11726 ft 260 kts 113°
2026-04-18 09:13 47.27369 11.19585 11724 ft 260 kts 113°
2026-04-18 09:13 47.26660 11.22007 11722 ft 260 kts 113°
2026-04-18 09:13 47.25945 11.24458 11725 ft 260 kts 112°
2026-04-18 09:13 47.25581 11.26141 11719 ft 259 kts 100°
2026-04-18 09:14 47.25464 11.28776 11717 ft 257 kts 83°
2026-04-18 09:14 47.25729 11.31382 11720 ft 257 kts 79°
2026-04-18 09:14 47.26098 11.34828 11722 ft 257 kts 79°
2026-04-18 09:14 47.26284 11.36585 11720 ft 257 kts 79°
2026-04-18 09:15 47.26566 11.39259 11727 ft 284 kts 80°
2026-04-18 09:15 47.26878 11.42236 11720 ft 299 kts 80°
2026-04-18 09:15 47.27309 11.45249 11721 ft 301 kts 69°
2026-04-18 09:15 47.28101 11.48108 11719 ft 302 kts 66°
2026-04-18 09:16 47.28904 11.50964 11722 ft 302 kts 66°
2026-04-18 09:16 47.29705 11.53824 11719 ft 302 kts 66°
2026-04-18 09:16 47.30504 11.56682 11718 ft 301 kts 66°
2026-04-18 09:16 47.31292 11.59507 11718 ft 302 kts 66°
2026-04-18 09:17 47.32088 11.62369 11716 ft 302 kts 66°
2026-04-18 09:17 47.32886 11.65237 11716 ft 302 kts 66°
2026-04-18 09:17 47.33683 11.68104 11716 ft 302 kts 66°
2026-04-18 09:17 47.34478 11.70961 11718 ft 301 kts 66°
2026-04-18 09:18 47.35272 11.73820 11719 ft 300 kts 66°
2026-04-18 09:18 47.36050 11.76643 11715 ft 300 kts 66°
2026-04-18 09:18 47.36836 11.79498 11714 ft 300 kts 66°
2026-04-18 09:18 47.37661 11.82327 11713 ft 299 kts 60°
2026-04-18 09:19 47.38788 11.84895 11709 ft 298 kts 53°
2026-04-18 09:19 47.39982 11.87406 11714 ft 298 kts 53°
2026-04-18 09:19 47.41170 11.89914 11713 ft 298 kts 53°
2026-04-18 09:19 47.42345 11.92403 11707 ft 290 kts 54°
2026-04-18 09:20 47.43483 11.94736 11705 ft 276 kts 50°
2026-04-18 09:20 47.44676 11.96869 11709 ft 263 kts 47°
2026-04-18 09:20 47.45860 11.98842 11708 ft 253 kts 46°
2026-04-18 09:20 47.47043 12.00767 11709 ft 251 kts 46°
2026-04-18 09:21 47.48213 12.02672 11622 ft 250 kts 46°
2026-04-18 09:21 47.49501 12.04359 11348 ft 246 kts 26°
2026-04-18 09:21 47.51118 12.05058 11043 ft 242 kts
2026-04-18 09:21 47.52747 12.04640 10782 ft 238 kts 334°
2026-04-18 09:22 47.54070 12.03240 10587 ft 238 kts 309°
2026-04-18 09:22 47.54861 12.01108 10393 ft 237 kts 284°
2026-04-18 09:22 47.54940 11.98687 10202 ft 238 kts 258°
2026-04-18 09:22 47.54288 11.96433 10000 ft 239 kts 232°
2026-04-18 09:23 47.53038 11.94838 9788 ft 239 kts 207°
2026-04-18 09:23 47.51458 11.94215 9597 ft 241 kts 183°
2026-04-18 09:23 47.49767 11.94174 9492 ft 247 kts 181°
2026-04-18 09:23 47.48025 11.94134 9497 ft 252 kts 181°
2026-04-18 09:24 47.46264 11.94092 9496 ft 254 kts 181°
2026-04-18 09:24 47.44512 11.93868 9491 ft 252 kts 195°
2026-04-18 09:24 47.42918 11.92817 9497 ft 250 kts 216°
2026-04-18 09:24 47.41680 11.91031 9497 ft 249 kts 235°
2026-04-18 09:25 47.40705 11.88951 9498 ft 249 kts 236°
2026-04-18 09:25 47.39713 11.86841 9497 ft 250 kts 236°
2026-04-18 09:25 47.38715 11.84728 9504 ft 251 kts 237°
2026-04-18 09:25 47.37745 11.82590 9498 ft 250 kts 242°
2026-04-18 09:26 47.37037 11.80265 9503 ft 248 kts 249°
2026-04-18 09:26 47.36386 11.77886 9290 ft 251 kts 249°
2026-04-18 09:26 47.35723 11.75480 8876 ft 254 kts 249°
2026-04-18 09:26 47.35049 11.73049 8466 ft 258 kts 249°
2026-04-18 09:27 47.34371 11.70621 8276 ft 252 kts 248°
2026-04-18 09:27 47.33712 11.68265 8029 ft 252 kts 248°
2026-04-18 09:27 47.33044 11.65881 7577 ft 250 kts 248°
2026-04-18 09:27 47.32384 11.63526 7143 ft 245 kts 248°
2026-04-18 09:28 47.31740 11.61221 6721 ft 241 kts 248°
2026-04-18 09:28 47.31108 11.58958 6294 ft 237 kts 248°
2026-04-18 09:28 47.30490 11.56740 5844 ft 236 kts 248°
2026-04-18 09:28 47.29871 11.54514 5403 ft 232 kts 248°
2026-04-18 09:29 47.29265 11.52334 5017 ft 226 kts 248°
2026-04-18 09:29 47.28699 11.50320 4685 ft 202 kts 248°
2026-04-18 09:29 47.28181 11.48467 4287 ft 189 kts 248°
2026-04-18 09:29 47.27695 11.46733 3990 ft 175 kts 248°
2026-04-18 09:30 47.27247 11.45130 3663 ft 163 kts 248°
2026-04-18 09:30 47.27002 11.43572 3362 ft 154 kts 262°
2026-04-18 09:30 47.26843 11.42049 3084 ft 147 kts 261°
2026-04-18 09:30 47.26685 11.40579 2807 ft 144 kts 261°
2026-04-18 09:31 47.26522 11.39131 2506 ft 142 kts 261°
2026-04-18 09:31 47.26369 11.37712 2245 ft 141 kts 261°
2026-04-18 09:31 47.26219 11.36285 2003 ft 141 kts 261°
2026-04-18 09:31 47.26072 11.34905 1908 ft 119 kts 261°
2026-04-18 09:32 47.25973 11.33948 1909 ft 68 kts 261°
2026-04-18 09:32 47.25923 11.33703 1897 ft 7 kts 197°
2026-04-18 09:32 47.25888 11.33724 1904 ft 6 kts 131°
2026-04-18 09:32 47.25833 11.33832 1900 ft 27 kts 122°
2026-04-18 09:33 47.25774 11.34056 1907 ft 0 kts 84°